EDT,Max TemperatureF,Mean TemperatureF,Min TemperatureF,Max Dew PointF,MeanDew PointF,Min DewpointF,Max Humidity, Mean Humidity, Min Humidity, Max Sea Level PressureIn, Mean Sea Level PressureIn, Min Sea Level PressureIn, Max VisibilityMiles, Mean VisibilityMiles, Min VisibilityMiles, Max Wind SpeedMPH, Mean Wind SpeedMPH, Max Gust SpeedMPH,PrecipitationIn, CloudCover, Events, WindDirDegrees
2014-5-1,82,75,69,70,68,64,96,87,56,29.98,29.93,29.86,10,8,5,15,9,21,0.03,5,Rain-Thunderstorm,199
2014-5-2,69,64,59,65,57,50,96,76,52,29.95,29.91,29.87,10,10,9,13,8,23,0.00,4,Rain,293
2014-5-3,75,65,57,60,56,51,97,74,48,29.94,29.90,29.86,10,10,5,14,4,23,0.01,3,Rain,221
2014-5-4,82,68,55,59,51,45,84,55,28,30.00,29.93,29.86,10,10,10,13,9,18,0.00,0,,261
2014-5-5,75,68,60,63,55,52,86,67,48,30.02,29.95,29.89,10,10,10,15,8,23,0.00,1,,119
2014-5-6,87,75,64,67,63,61,97,73,43,30.02,29.91,29.84,10,9,6,13,9,,0.00,1,,278
2014-5-7,81,72,64,70,64,60,96,86,62,30.13,30.08,30.04,10,10,7,12,9,,0.00,3,,101
2014-5-8,91,82,72,69,63,58,76,56,33,30.21,30.15,30.10,10,10,10,14,10,22,0.00,1,,232
2014-5-9,90,76,64,70,64,57,90,67,34,30.19,30.13,30.08,10,10,7,14,10,20,0.00,0,,223
2014-5-10,88,78,68,71,68,63,97,78,44,30.17,30.12,30.06,10,9,4,14,7,22,0.00,1,,211
2014-5-11,86,77,70,71,68,66,97,80,55,30.16,30.12,30.09,10,10,6,9,7,,0.00,3,,219
2014-5-12,86,78,69,71,69,67,100,91,55,30.21,30.16,30.12,10,5,0,12,5,,0.00,4,Fog,222
2014-5-13,89,78,70,71,68,64,93,72,57,30.18,30.16,30.12,10,10,6,13,9,18,0.00,0,,204
2014-5-14,82,74,66,70,67,64,100,85,53,30.21,30.17,30.13,10,6,0,15,4,23,0.00,1,Fog,198
2014-5-15,82,76,70,70,69,67,93,78,62,30.14,30.05,29.94,10,10,10,25,11,36,0.00,3,,159
2014-5-16,77,70,61,72,67,49,100,86,45,30.03,29.87,29.82,10,7,2,22,14,33,1.58,6,Rain,233
2014-5-17,73,64,54,53,45,36,93,57,32,30.19,30.13,30.04,10,10,10,16,9,24,0.00,0,,299
2014-5-18,75,64,54,56,53,49,93,71,42,30.21,30.18,30.14,10,10,10,13,3,,0.00,4,,299
2014-5-19,73,64,54,54,47,39,93,63,30,30.30,30.25,30.19,10,10,8,15,7,18,0.00,0,,28
2014-5-20,77,62,48,52,50,47,97,64,37,30.31,30.23,30.15,10,10,10,13,3,20,0.00,0,,216
2014-5-21,87,74,61,66,59,52,84,63,38,30.15,30.06,29.97,10,10,10,12,6,,0.00,0,,222
2014-5-22,90,78,68,66,64,62,87,65,42,29.96,29.91,29.86,10,10,9,16,8,22,0.00,1,,263
2014-5-23,89,78,68,70,65,59,93,69,39,29.99,29.94,29.90,10,10,8,13,6,17,0.03,2,Thunderstorm,227
2014-5-24,81,72,64,70,56,45,94,63,29,30.14,30.05,29.95,10,10,7,16,6,18,0.00,1,Thunderstorm,7
2014-5-25,81,68,57,62,59,54,97,71,40,30.21,30.17,30.12,10,10,8,14,2,,0.00,1,,192
2014-5-26,82,72,62,66,62,59,93,71,45,30.25,30.19,30.13,10,10,10,18,5,24,0.00,1,,207
2014-5-27,87,77,68,72,68,63,93,77,55,30.16,30.06,29.97,10,10,4,14,8,24,0.12,2,Rain-Thunderstorm,215
2014-5-28,91,80,69,72,69,65,97,77,43,30.02,29.98,29.93,10,9,6,12,7,18,0.00,1,,242
2014-5-29,82,76,70,69,67,65,91,75,58,30.10,30.05,29.98,10,10,8,10,7,20,0.00,5,Thunderstorm,64
2014-5-30,78,72,66,68,66,63,93,83,69,30.13,30.08,30.04,10,9,2,12,6,,0.11,7,Rain,77
2014-5-31,84,72,63,65,61,51,100,75,41,30.23,30.14,30.10,10,10,6,15,6,,0.00,5,,56